STARLINK-1873 (47158 NORAD) Tracking and Keplerian Element Data
This shows tracking and keplerian element data for the satellite.
Feedback or suggestion? Click here.
Element | Value |
Catalog | 47158 |
Name | STARLINK-1873 |
Epoch Orbit | 180 |
Epoch Day | 99.91667824 |
Epoch Year | 2021 |
RAAN | 68.7087 |
Inclination | 53.0424 |
Eccentricity | 0.0001854 |
Argument of Perigee | 74.0312 |
Mean Anonmoly | 241.8897 |
Mean Motion | 15.06389246 |
Decay Rate | 0.00016159 |
L1 | 1 47158U 20088AN 21099.91667824 .00016159 00000-0 11015-2 0 9999 |
L2 | 2 47158 53.0424 68.7087 0001854 74.0312 241.8897 15.06389246 1808 |
Live tracking and technical data element details for STARLINK-1873 (NORAD 47158). STARLINK-1873 can be tracked NOW for your location showing map with azimuth and elevation plus other details from your city location.
Track the satellite on the map from your city or location and see movement details for azimuth, elevation, latitude, longitude, range, height, and movement on the map or in text.
IsCatalogInMostPopularTable: catalog: 47158, numindb: 53
Update: records affected: 1
GetName: 47158 STARLINK-1873
Hit Count: updated at: Sat, 10 Apr 2021 19:04:47 GMT